Location: Buckland
(65.9785°N, 161.1281°W)
Time: 15:11:40
(UTC+00:00)

Transit 4A - Pass Details

Date: 09 October 2022
Orbit: 871 x 972 km, 66.8° (Epoch: 29 November)

Event Time Altitude Azimuth Distance (km) Brightness Sun altitude
Exits shadow 13:15:01 33° 286° (WNW) 1,457 8.6 -24.1°
Maximum altitude 13:17:50 85° 201° (SSW) 897 7.7 -23.9°
Drops below altitude 10° 13:23:42 10° 114° (ESE) 2,531 10.4 -23.4°
Sets 13:26:09 0° 114° (ESE) 3,464 11.2 -23.2°
